Weather in Colorado Springs

United States     38°51′01″N   104°46′38″W
temp.,
°C
wind,
m/s
gust,
m/s
humid.,
%
clouds,
%
prec.,
mm/h
press.,
hPa
HPBL,
m
16 september, thu
thu1600:00+20nw22270 0.0 100917
03:00+18nnw22320 0.0 100935
06:00+17nw22340 0.0 100927
09:00+24nnw11200 0.0 1008197
12:00+29s36120 0.0 10063506
15:00+30wsw5891 0.0 10034308
18:00+28w341370 0.0 10031232
21:00+23nw341986 0.0 1007120
17 september, fri
fri1700:00+21nw462064 0.0 1009175
03:00+19n8132363 0.0 1012427
06:00+14nnw913434 0.0 1018417
09:00+18se13320 0.0 1019450
12:00+21s66260 0.0 10191098
15:00+24sse76230 0.0 10161515
18:00+22sse77290 0.0 10161215
21:00+16s46510 0.0 1020245
18 september, sat
sat1800:00+15ssw35580 0.0 1020139
03:00+14sse22640 0.0 102168
06:00+12wsw01630 0.0 102043
09:00+18sse11350 0.0 1019189
12:00+27sse46140 0.0 10151516
15:00+29s78110 0.0 10113226
18:00+27sse46150 0.0 1010581
21:00+21nw33215 0.0 101222
19 september, sun
sun1900:00+19wnw33230 0.0 101240
03:00+17wnw22331 0.0 101223
06:00+17wnw33414 0.0 101245
09:00+22ssw13310 0.0 1012597
12:00+27sw79227 0.0 10092678
15:00+28sw9111995 0.0 10053711
18:00+27ssw8102181 0.0 10031419
21:00+21wnw222841 0.0 100645
20 september, mon
mon2000:00+19wnw34300 0.0 100664
03:00+17wnw33350 0.0 100750
06:00+15w22340 0.0 100824
09:00+17ne42320 0.0 1012560
12:00+22e46204 0.0 10101446
15:00+22ese772021 0.0 10101836
18:00+19e65223 0.0 10141313
21:00+14ne35290 0.0 1021286